Location: Paris
(48.6709°N, 2.3750°E)
Time: 00:18:06
(UTC+02:00)

QB50P2 - Pass Details

Date: 06 July 2022
Orbit: 590 x 605 km, 97.9° (Epoch: 07 August)

Event Time Altitude Azimuth Distance (km) Brightness Sun altitude
Rises 04:33:15 0° 1° (N) 2,864 ? -10.4°
Reaches altitude 10° 04:35:51 10° 346° (NNW) 1,958 ? -10.1°
Maximum altitude 04:39:00 21° 298° (WNW) 1,391 ? -9.8°
Drops below altitude 10° 04:42:08 10° 250° (WSW) 1,952 ? -9.5°
Enters shadow 04:42:21 - 248° (WSW) 2,020 ? -9.5°
